SCP
0 0 -0 -0 -0 -0 -0 -0 -0 -0 -0 -0 -0 -0 -0 -0 -0 -0 -0 -0 -0 -0 -0 -0 -0 -0 -0 -0 -0 -0 -0 -0 -0 -0 -0 -0 -0 -0 -0 -0 -0 -0 -0
0 0 0 -0 -0 -0 -0 -0 -0 -0 -0 -0 -0 -0 -0 -0 -0 -0 -0 0 0 0 0 0 0 0 0 0 0 0 0 0 0 -0 -0 -0 -0 -0 -0 -0 -0 -0 -0
0 0 0 0 0 -0 -0 -0 -0 -0 -0 -0 -0 -0 -0 0 0 0 0 0 0 0 0 0 0 0 0 0 0 0 0 0 0 0 -0 0 0 -0 -0 -0 -0 -0 0
-0 0 -0 0 -0 0 0 0 0 0 0 0 0 0 0 0 0 0 0 0 0 0 0 0 0 0 0 0 0 0 0 0 0 0 0 0 0 0 -0 -0 -0 0 0
-0 0 -0 -0 -0 0 0 0 0 0 0 0 0 0 0 0 0 0 0 0 0 0 0 0 0 0 0 0 0 0 -0 0 0 0 0 0 0 0 0 0 0 0 0
-0 0 0 0 0 0 0 0 0 0 0 0 0 0 0 0 0 0 0 0 0 0 0 0 0 0 0 0 0 0 0 -0 -0 0 0 0 0 0 -0 0 0 0 0
0 0 0 0 0 0 0 0 0 0 0 0 0 0 0 0 0 0 0 0 0 0 0 0 0 0 0 0 0 0 0 0 0 0 0 0 0 -0 0 0 0 0 0
0 0 -0 0 0 0 0 0 0 0 0 1 0 0 0 0 0 0 0 0 0 0 0 0 0 0 0 0 0 0 0 -0 -0 0 0 0 0 0 0 0 0 0 0
0 0 0 -0 -0 0 0 0 0 0 0 1 1 1 1 1 1 0 0 0 0 0 0 0 0 0 0 0 0 0 0 0 0 0 0 0 0 0 0 0 0 0 0
0 0 0 0 -0 0 0 -0 -0 0 0 1 1 1 1 1 1 1 0 0 0 0 0 0 0 0 0 0 0 0 0 0 0 0 0 0 0 0 0 0 0 0 0
0 0 0 0 0 0 0 0 1 0 1 1 1 1 1 1 0 0 1 1 1 1 1 0 0 0 0 0 0 0 0 0 0 0 0 0 0 0 0 0 0 0 0
0 0 0 0 0 0 1 0 1 1 1 1 1 1 1 0 0 0 0 0 0 0 1 1 0 0 0 0 0 0 0 0 0 0 0 0 0 0 0 0 0 0 0
0 0 0 0 0 -0 0 0 0 0 0 0 0 0 0 0 0 0 0 1 1 1 1 1 1 1 0 0 0 0 0 0 0 0 0 0 0 0 0 0 0 0 0
0 0 0 0 0 0 0 0 0 0 0 0 0 0 0 0 0 0 0 0 0 0 1 1 1 1 0 0 0 0 0 0 0 0 0 1 1 1 0 0 0 0 0
0 0 0 0 0 0 0 0 0 0 1 1 1 0 0 0 0 0 0 0 0 0 1 1 0 1 0 0 0 0 0 0 0 0 0 1 1 1 1 1 0 0 0
0 0 0 0 0 0 0 0 0 0 0 0 1 0 0 0 0 0 0 0 0 1 1 1 1 1 0 0 0 0 0 0 0 0 0 1 1 1 1 1 1 0 0
0 0 0 0 0 0 0 0 0 0 0 0 0 0 0 0 0 0 0 0 -0 1 2 1 1 0 0 0 0 0 0 0 0 0 0 1 1 1 2 1 1 1 1
0 0 0 0 0 0 0 0 0 0 0 0 0 0 0 0 2 0 0 0 1 3 3 2 0 0 0 0 0 0 0 0 0 0 0 0 1 2 2 2 2 2 1
0 0 -0 -0 -0 -0 -0 -0 0 0 0 0 0 0 0 0 1 2 2 2 4 3 3 3 1 0 0 1 1 1 0 0 0 0 0 0 0 1 2 2 2 2 1
0 0 0 -0 -0 -0 -0 -0 -0 0 0 0 0 0 0 0 0 0 0 4 4 3 2 2 3 2 1 1 1 1 0 0 0 0 0 0 0 1 2 2 4 4 2
0 0 0 -0 -0 -0 -0 -0 -0 0 0 0 0 0 0 0 0 0 0 0 2 3 2 2 2 2 2 2 1 1 0 0 0 1 0 0 0 0 2 2 5 5 4
0 0 0 0 0 0 -0 -0 -0 0 0 0 0 0 0 0 0 0 0 0 0 2 2 2 2 2 2 1 2 0 1 0 0 0 0 0 0 0 2 3 2 3 4
0 0 0 0 0 0 0 -0 0 0 0 0 0 0 0 0 0 0 0 0 1 2 2 1 2 2 1 1 1 1 1 1 0 0 0 0 0 1 2 2 2 2 0
0 0 0 0 0 0 0 0 -0 0 0 0 0 0 0 0 0 0 0 0 0 0 1 1 1 1 1 1 1 2 1 0 0 0 1 1 1 1 0 0 0 0 0
0 0 0 0 0 0 0 0 0 0 0 0 0 0 0 0 0 0 0 0 0 0 0 1 1 1 1 1 1 1 1 1 1 1 0 0 0 0 0 0 0 1 0
0 0 0 0 0 0 0 0 0 -0 -0 0 0 0 0 -0 -0 0 0 0 0 0 0 0 1 1 1 1 1 1 1 1 1 1 1 0 0 0 0 0 0 0 0
Wind_Speed_500mb
22 26 25 24 27 28 30 28 26 26 28 29 27 29 28 28 29 30 31 30 26 23 24 23 21 19 17 15 12 11 11 7 10 9 9 17 23 27 34 37 36 35 34
19 22 21 21 25 25 29 28 25 23 23 26 27 26 23 25 25 25 25 24 22 20 20 18 17 16 15 15 13 13 12 11 8 6 7 6 16 20 25 34 31 31 31
21 25 22 21 21 22 26 26 25 23 20 20 22 22 21 20 19 19 19 19 18 17 15 13 13 12 13 14 13 11 9 9 8 6 8 5 11 16 17 25 29 29 29
27 28 25 22 20 19 22 25 24 24 20 17 17 17 15 15 16 15 14 14 12 12 11 11 10 11 11 11 11 9 7 7 7 12 9 6 5 10 14 21 29 27 27
32 26 23 21 19 17 20 22 22 23 21 17 16 16 15 12 10 10 11 11 9 10 9 9 9 9 10 10 10 9 8 9 10 12 9 7 11 8 12 17 27 26 24
30 24 22 19 16 15 18 19 19 21 20 17 15 16 13 11 10 10 9 9 9 10 10 11 12 12 13 13 13 12 10 11 13 14 11 9 17 10 15 13 27 26 24
25 22 20 17 14 13 14 15 15 16 17 16 15 16 16 14 12 13 14 15 15 15 15 16 16 16 16 17 17 16 14 13 14 17 19 16 21 23 19 17 26 26 22
20 22 19 14 10 9 8 8 9 11 13 14 14 15 17 18 17 18 20 20 21 21 21 21 21 21 21 21 21 21 19 17 17 15 19 17 26 34 31 18 24 25 22
16 17 7 13 11 10 8 8 8 5 8 13 16 19 21 23 24 24 26 27 27 28 28 27 26 26 27 26 26 26 24 22 21 23 26 27 16 32 36 24 24 23 24
20 27 6 10 13 21 8 5 5 7 8 13 20 25 27 28 30 32 33 34 34 34 34 33 31 31 31 31 31 31 29 29 26 24 29 28 22 31 41 29 26 21 26
58 33 17 13 14 22 22 12 7 5 6 9 20 25 30 32 34 37 39 39 40 40 39 39 37 36 36 37 36 35 34 33 29 29 29 30 33 34 45 35 27 22 27
39 31 34 22 20 22 12 7 13 13 9 26 24 20 25 30 33 40 40 37 31 31 36 41 44 45 44 44 41 38 40 34 23 24 34 36 31 37 51 39 27 26 29
28 24 27 15 6 13 11 15 13 7 24 29 27 20 24 24 28 25 26 34 36 38 42 38 35 45 53 51 46 43 41 35 21 19 18 31 36 46 50 41 33 32 32
34 34 35 32 29 25 20 19 8 8 11 19 30 26 13 31 39 35 30 32 34 41 44 48 42 33 30 36 42 30 32 39 32 31 35 38 42 52 49 43 39 36 35
38 36 38 38 35 34 36 31 26 23 17 11 23 24 26 35 41 48 39 40 48 44 49 53 53 48 40 31 29 34 29 37 37 32 37 34 28 45 44 45 43 41 38
32 35 34 32 35 35 36 37 36 31 20 24 24 26 30 38 28 41 49 48 44 53 55 61 50 45 53 49 42 38 38 31 39 44 58 51 44 44 49 50 49 47 41
33 35 36 35 34 33 37 40 40 38 34 28 29 34 33 31 37 46 38 44 39 49 55 61 49 46 48 43 54 50 46 45 42 49 48 57 64 62 58 56 54 55 48
34 41 47 52 53 50 47 46 43 38 35 32 30 27 37 43 39 49 53 52 46 56 60 58 55 64 67 55 49 50 46 51 55 56 58 55 57 68 71 68 64 61 57
34 41 52 58 60 63 62 60 51 40 35 33 32 29 26 34 40 47 55 59 66 59 66 61 67 49 50 59 68 57 56 58 63 59 62 62 65 63 68 77 73 70 68
29 35 44 49 53 57 65 72 64 48 43 41 42 42 38 35 45 53 55 55 60 64 67 61 70 59 58 61 60 70 70 66 55 57 63 66 64 69 72 70 78 76 70
23 35 42 44 45 48 58 70 64 55 55 53 47 41 42 45 44 46 52 62 58 62 68 62 58 70 73 69 63 66 64 71 74 67 57 64 68 79 80 73 77 79 78
29 34 37 37 38 46 54 62 59 60 62 59 59 55 41 36 34 37 38 48 63 56 62 66 67 69 67 65 68 65 63 65 68 72 75 76 80 65 76 85 77 79 85
29 28 34 35 39 46 54 58 56 61 65 70 67 62 49 52 54 51 48 46 47 56 65 67 65 65 73 75 65 59 32 49 61 58 60 64 64 75 82 72 61 54 40
20 31 41 35 41 46 49 56 56 59 70 72 69 73 74 68 60 63 64 57 58 53 52 61 69 73 64 69 72 70 73 69 47 42 47 47 43 49 63 68 62 51 47
33 40 29 35 34 42 44 46 55 70 72 79 80 84 88 91 87 69 57 64 63 59 58 56 60 69 75 78 76 73 78 74 75 78 64 67 68 67 65 71 59 53 56
42 37 31 26 36 36 42 54 67 73 74 77 84 90 94 94 88 83 70 55 50 50 52 53 51 56 68 69 74 76 78 75 66 73 68 71 67 64 64 60 58 56 28
Wind_Direction_500mb
142 138 140 132 131 131 132 133 127 120 120 125 124 125 124 123 127 134 142 145 143 139 134 129 132 135 141 152 155 155 178 137 109 98 70 66 50 41 33 33 37 36 38
158 162 155 145 135 137 137 139 136 130 125 130 131 128 126 128 132 135 142 146 150 154 148 140 139 146 155 163 168 172 181 188 177 99 76 91 34 40 38 23 26 31 33
174 183 171 155 141 142 141 147 147 142 134 135 137 136 134 132 132 135 142 151 156 161 158 153 157 162 168 172 174 174 174 180 190 171 92 60 36 9 33 22 9 19 26
175 187 170 153 147 147 146 153 155 153 147 145 145 144 145 143 144 146 153 161 164 168 169 174 181 184 187 189 188 180 173 166 172 176 193 190 240 347 359 8 356 4 17
176 172 159 152 150 151 151 155 162 163 163 164 167 168 165 166 166 169 177 180 190 192 200 206 212 217 218 219 220 207 194 182 190 201 204 228 272 291 304 348 345 351 4
133 152 153 153 146 151 152 155 164 173 176 180 184 187 190 195 202 200 210 222 225 232 230 233 233 237 241 241 241 236 225 211 204 205 208 248 269 303 272 325 338 340 350
120 144 146 146 144 148 149 155 167 182 188 195 202 208 211 218 229 239 240 241 241 239 239 244 246 245 248 250 252 256 252 240 231 210 223 248 260 255 265 302 330 330 333
115 113 109 101 115 109 118 136 173 192 202 216 226 234 236 241 250 255 257 258 259 256 254 253 250 250 251 253 255 257 258 248 243 223 219 252 271 248 244 273 312 320 318
127 96 44 116 97 74 76 62 33 336 274 247 244 250 254 256 259 262 263 264 265 266 264 265 263 259 257 256 257 259 261 259 251 238 250 247 251 242 238 254 299 313 311
136 56 91 99 71 30 45 90 63 22 358 332 303 272 260 261 264 266 267 267 265 264 263 264 266 267 265 263 261 261 262 262 263 255 255 241 251 249 243 247 286 302 307
80 84 57 62 26 349 330 305 307 306 280 333 301 273 276 274 273 273 272 271 271 269 265 265 265 265 264 263 262 263 265 266 270 269 254 249 244 253 230 244 270 295 303
62 67 86 105 92 80 58 326 335 323 289 315 296 299 278 275 277 279 275 271 276 279 272 269 270 267 263 263 263 264 264 269 268 302 254 240 255 256 236 244 263 289 293
17 14 17 19 350 344 34 51 45 336 326 332 277 278 276 277 255 255 279 276 269 271 273 277 281 278 271 269 269 270 268 258 249 277 247 247 268 247 231 244 264 280 286
346 348 344 348 341 334 338 335 316 326 330 308 303 299 303 301 289 269 254 258 267 272 274 273 271 280 288 282 262 262 276 244 243 256 267 271 268 237 237 246 265 271 280
344 354 353 349 337 330 318 316 318 301 284 289 294 298 299 293 299 261 262 251 257 262 266 273 271 268 271 274 265 262 274 254 243 256 259 263 252 236 252 255 259 266 274
352 354 352 344 335 327 321 319 315 314 295 269 278 288 300 294 282 282 257 255 253 258 261 262 269 273 268 265 258 254 256 256 244 259 260 265 266 260 261 261 262 261 266
347 341 343 338 333 321 318 313 309 306 303 289 271 267 282 289 271 279 266 248 249 248 258 260 263 267 266 270 264 259 254 252 251 263 259 256 255 260 265 263 261 258 254
331 335 338 338 333 327 321 315 310 305 301 300 300 289 276 277 287 271 264 257 253 252 258 258 256 255 257 269 263 260 252 256 256 259 260 259 261 255 258 261 258 252 249
327 330 339 341 339 338 337 334 322 306 297 287 279 277 263 269 278 278 268 257 260 261 256 266 256 258 253 258 257 254 256 259 260 261 259 260 262 259 259 255 262 256 246
316 327 336 338 338 339 339 340 336 320 305 295 283 273 271 268 261 262 260 262 262 261 260 267 249 250 250 255 260 256 255 255 259 262 259 258 257 263 261 259 257 256 246
321 335 335 338 335 335 341 341 338 334 327 318 308 297 283 284 281 283 271 255 256 258 259 256 254 253 253 252 259 260 258 258 257 253 262 259 260 261 262 257 260 255 254
333 336 339 328 327 335 340 340 334 330 326 324 318 300 287 282 284 281 278 274 254 260 261 261 256 256 251 255 248 256 263 268 262 255 257 260 260 261 262 262 267 259 257
337 335 328 320 322 330 334 334 331 329 325 326 326 324 310 284 280 284 280 276 273 264 254 255 258 256 252 257 253 248 250 246 265 270 268 262 266 264 257 259 259 257 262
328 336 324 315 323 330 332 332 335 327 324 322 319 316 314 311 303 282 275 275 275 275 268 260 255 256 258 256 255 251 247 252 262 271 263 259 276 269 262 260 262 268 267
344 339 318 320 329 332 333 333 329 326 325 322 313 308 307 306 304 301 286 276 274 278 276 269 265 261 258 256 260 259 254 255 255 259 264 269 266 266 272 278 278 275 273
339 336 317 324 329 328 329 328 326 324 322 315 310 306 305 307 304 298 297 283 270 271 274 270 266 273 264 260 259 257 255 252 254 251 254 264 272 279 279 276 281 274 253
Wind_Speed_850mb
22 26 25 24 27 28 30 28 26 26 28 29 27 29 28 28 29 30 31 30 26 23 24 23 21 19 17 15 12 11 11 7 10 9 9 17 23 27 34 37 36 35 34
19 22 21 21 25 25 29 28 25 23 23 26 27 26 23 25 25 25 25 24 22 20 20 18 17 16 15 15 13 13 12 11 8 6 7 6 16 20 25 34 31 31 31
21 25 22 21 21 22 26 26 25 23 20 20 22 22 21 20 19 19 19 19 18 17 15 13 13 12 13 14 13 11 9 9 8 6 8 5 11 16 17 25 29 29 29
27 28 25 22 20 19 22 25 24 24 20 17 17 17 15 15 16 15 14 14 12 12 11 11 10 11 11 11 11 9 7 7 7 12 9 6 5 10 14 21 29 27 27
32 26 23 21 19 17 20 22 22 23 21 17 16 16 15 12 10 10 11 11 9 10 9 9 9 9 10 10 10 9 8 9 10 12 9 7 11 8 12 17 27 26 24
30 24 22 19 16 15 18 19 19 21 20 17 15 16 13 11 10 10 9 9 9 10 10 11 12 12 13 13 13 12 10 11 13 14 11 9 17 10 15 13 27 26 24
25 22 20 17 14 13 14 15 15 16 17 16 15 16 16 14 12 13 14 15 15 15 15 16 16 16 16 17 17 16 14 13 14 17 19 16 21 23 19 17 26 26 22
20 22 19 14 10 9 8 8 9 11 13 14 14 15 17 18 17 18 20 20 21 21 21 21 21 21 21 21 21 21 19 17 17 15 19 17 26 34 31 18 24 25 22
16 17 7 13 11 10 8 8 8 5 8 13 16 19 21 23 24 24 26 27 27 28 28 27 26 26 27 26 26 26 24 22 21 23 26 27 16 32 36 24 24 23 24
20 27 6 10 13 21 8 5 5 7 8 13 20 25 27 28 30 32 33 34 34 34 34 33 31 31 31 31 31 31 29 29 26 24 29 28 22 31 41 29 26 21 26
58 33 17 13 14 22 22 12 7 5 6 9 20 25 30 32 34 37 39 39 40 40 39 39 37 36 36 37 36 35 34 33 29 29 29 30 33 34 45 35 27 22 27
39 31 34 22 20 22 12 7 13 13 9 26 24 20 25 30 33 40 40 37 31 31 36 41 44 45 44 44 41 38 40 34 23 24 34 36 31 37 51 39 27 26 29
28 24 27 15 6 13 11 15 13 7 24 29 27 20 24 24 28 25 26 34 36 38 42 38 35 45 53 51 46 43 41 35 21 19 18 31 36 46 50 41 33 32 32
34 34 35 32 29 25 20 19 8 8 11 19 30 26 13 31 39 35 30 32 34 41 44 48 42 33 30 36 42 30 32 39 32 31 35 38 42 52 49 43 39 36 35
38 36 38 38 35 34 36 31 26 23 17 11 23 24 26 35 41 48 39 40 48 44 49 53 53 48 40 31 29 34 29 37 37 32 37 34 28 45 44 45 43 41 38
32 35 34 32 35 35 36 37 36 31 20 24 24 26 30 38 28 41 49 48 44 53 55 61 50 45 53 49 42 38 38 31 39 44 58 51 44 44 49 50 49 47 41
33 35 36 35 34 33 37 40 40 38 34 28 29 34 33 31 37 46 38 44 39 49 55 61 49 46 48 43 54 50 46 45 42 49 48 57 64 62 58 56 54 55 48
34 41 47 52 53 50 47 46 43 38 35 32 30 27 37 43 39 49 53 52 46 56 60 58 55 64 67 55 49 50 46 51 55 56 58 55 57 68 71 68 64 61 57
34 41 52 58 60 63 62 60 51 40 35 33 32 29 26 34 40 47 55 59 66 59 66 61 67 49 50 59 68 57 56 58 63 59 62 62 65 63 68 77 73 70 68
29 35 44 49 53 57 65 72 64 48 43 41 42 42 38 35 45 53 55 55 60 64 67 61 70 59 58 61 60 70 70 66 55 57 63 66 64 69 72 70 78 76 70
23 35 42 44 45 48 58 70 64 55 55 53 47 41 42 45 44 46 52 62 58 62 68 62 58 70 73 69 63 66 64 71 74 67 57 64 68 79 80 73 77 79 78
29 34 37 37 38 46 54 62 59 60 62 59 59 55 41 36 34 37 38 48 63 56 62 66 67 69 67 65 68 65 63 65 68 72 75 76 80 65 76 85 77 79 85
29 28 34 35 39 46 54 58 56 61 65 70 67 62 49 52 54 51 48 46 47 56 65 67 65 65 73 75 65 59 32 49 61 58 60 64 64 75 82 72 61 54 40
20 31 41 35 41 46 49 56 56 59 70 72 69 73 74 68 60 63 64 57 58 53 52 61 69 73 64 69 72 70 73 69 47 42 47 47 43 49 63 68 62 51 47
33 40 29 35 34 42 44 46 55 70 72 79 80 84 88 91 87 69 57 64 63 59 58 56 60 69 75 78 76 73 78 74 75 78 64 67 68 67 65 71 59 53 56
42 37 31 26 36 36 42 54 67 73 74 77 84 90 94 94 88 83 70 55 50 50 52 53 51 56 68 69 74 76 78 75 66 73 68 71 67 64 64 60 58 56 28
Wind_Direction_850mb
142 138 140 132 131 131 132 133 127 120 120 125 124 125 124 123 127 134 142 145 143 139 134 129 132 135 141 152 155 155 178 137 109 98 70 66 50 41 33 33 37 36 38
158 162 155 145 135 137 137 139 136 130 125 130 131 128 126 128 132 135 142 146 150 154 148 140 139 146 155 163 168 172 181 188 177 99 76 91 34 40 38 23 26 31 33
174 183 171 155 141 142 141 147 147 142 134 135 137 136 134 132 132 135 142 151 156 161 158 153 157 162 168 172 174 174 174 180 190 171 92 60 36 9 33 22 9 19 26
175 187 170 153 147 147 146 153 155 153 147 145 145 144 145 143 144 146 153 161 164 168 169 174 181 184 187 189 188 180 173 166 172 176 193 190 240 347 359 8 356 4 17
176 172 159 152 150 151 151 155 162 163 163 164 167 168 165 166 166 169 177 180 190 192 200 206 212 217 218 219 220 207 194 182 190 201 204 228 272 291 304 348 345 351 4
133 152 153 153 146 151 152 155 164 173 176 180 184 187 190 195 202 200 210 222 225 232 230 233 233 237 241 241 241 236 225 211 204 205 208 248 269 303 272 325 338 340 350
120 144 146 146 144 148 149 155 167 182 188 195 202 208 211 218 229 239 240 241 241 239 239 244 246 245 248 250 252 256 252 240 231 210 223 248 260 255 265 302 330 330 333
115 113 109 101 115 109 118 136 173 192 202 216 226 234 236 241 250 255 257 258 259 256 254 253 250 250 251 253 255 257 258 248 243 223 219 252 271 248 244 273 312 320 318
127 96 44 116 97 74 76 62 33 336 274 247 244 250 254 256 259 262 263 264 265 266 264 265 263 259 257 256 257 259 261 259 251 238 250 247 251 242 238 254 299 313 311
136 56 91 99 71 30 45 90 63 22 358 332 303 272 260 261 264 266 267 267 265 264 263 264 266 267 265 263 261 261 262 262 263 255 255 241 251 249 243 247 286 302 307
80 84 57 62 26 349 330 305 307 306 280 333 301 273 276 274 273 273 272 271 271 269 265 265 265 265 264 263 262 263 265 266 270 269 254 249 244 253 230 244 270 295 303
62 67 86 105 92 80 58 326 335 323 289 315 296 299 278 275 277 279 275 271 276 279 272 269 270 267 263 263 263 264 264 269 268 302 254 240 255 256 236 244 263 289 293
17 14 17 19 350 344 34 51 45 336 326 332 277 278 276 277 255 255 279 276 269 271 273 277 281 278 271 269 269 270 268 258 249 277 247 247 268 247 231 244 264 280 286
346 348 344 348 341 334 338 335 316 326 330 308 303 299 303 301 289 269 254 258 267 272 274 273 271 280 288 282 262 262 276 244 243 256 267 271 268 237 237 246 265 271 280
344 354 353 349 337 330 318 316 318 301 284 289 294 298 299 293 299 261 262 251 257 262 266 273 271 268 271 274 265 262 274 254 243 256 259 263 252 236 252 255 259 266 274
352 354 352 344 335 327 321 319 315 314 295 269 278 288 300 294 282 282 257 255 253 258 261 262 269 273 268 265 258 254 256 256 244 259 260 265 266 260 261 261 262 261 266
347 341 343 338 333 321 318 313 309 306 303 289 271 267 282 289 271 279 266 248 249 248 258 260 263 267 266 270 264 259 254 252 251 263 259 256 255 260 265 263 261 258 254
331 335 338 338 333 327 321 315 310 305 301 300 300 289 276 277 287 271 264 257 253 252 258 258 256 255 257 269 263 260 252 256 256 259 260 259 261 255 258 261 258 252 249
327 330 339 341 339 338 337 334 322 306 297 287 279 277 263 269 278 278 268 257 260 261 256 266 256 258 253 258 257 254 256 259 260 261 259 260 262 259 259 255 262 256 246
316 327 336 338 338 339 339 340 336 320 305 295 283 273 271 268 261 262 260 262 262 261 260 267 249 250 250 255 260 256 255 255 259 262 259 258 257 263 261 259 257 256 246
321 335 335 338 335 335 341 341 338 334 327 318 308 297 283 284 281 283 271 255 256 258 259 256 254 253 253 252 259 260 258 258 257 253 262 259 260 261 262 257 260 255 254
333 336 339 328 327 335 340 340 334 330 326 324 318 300 287 282 284 281 278 274 254 260 261 261 256 256 251 255 248 256 263 268 262 255 257 260 260 261 262 262 267 259 257
337 335 328 320 322 330 334 334 331 329 325 326 326 324 310 284 280 284 280 276 273 264 254 255 258 256 252 257 253 248 250 246 265 270 268 262 266 264 257 259 259 257 262
328 336 324 315 323 330 332 332 335 327 324 322 319 316 314 311 303 282 275 275 275 275 268 260 255 256 258 256 255 251 247 252 262 271 263 259 276 269 262 260 262 268 267
344 339 318 320 329 332 333 333 329 326 325 322 313 308 307 306 304 301 286 276 274 278 276 269 265 261 258 256 260 259 254 255 255 259 264 269 266 266 272 278 278 275 273
339 336 317 324 329 328 329 328 326 324 322 315 310 306 305 307 304 298 297 283 270 271 274 270 266 273 264 260 259 257 255 252 254 251 254 264 272 279 279 276 281 274 253